This is the latest recevied weather packets stored in our database for station/object SPDRWX. If no packets are shown the sender has not sent any weather packets the latest 10 day(s).
| Time | Temp. | Humidity | Pressure | Rain* | Wind** | Luminosity | Snow |
|---|---|---|---|---|---|---|---|
| 1778113912 | 18.33° C | 32% | 1016.3 hPa | 0 mm | - | - | - |
| 1778113310 | 18.89° C | 32% | 1016.3 hPa | 0 mm | - | - | - |
| 1778112879 | 18.89° C | 31% | 1016.2 hPa | 0 mm | - | - | - |
| 1778112603 | 18.89° C | 30% | 1016.2 hPa | 0 mm | - | - | - |
| 1778112534 | 18.89° C | 30% | 1016.1 hPa | 0 mm | - | - | - |
| 1778111491 | 19.44° C | 28% | 1016.2 hPa | 0 mm | - | - | - |
| 1778111311 | 19.44° C | 28% | 1016.2 hPa | 0 mm | - | - | - |
| 1778110966 | 19.44° C | 27% | 1016.2 hPa | 0 mm | - | - | - |
| 1778110311 | 19.44° C | 26% | 1016.1 hPa | 0 mm | - | - | - |
| 1778110166 | 19.44° C | 26% | 1016.1 hPa | 0 mm | - | - | - |
| 1778107762 | 18.89° C | 17% | 1016.5 hPa | 0 mm | - | - | - |
| 1778107152 | 18.89° C | 17% | 1016.5 hPa | 0 mm | - | - | - |
| 1778106852 | 18.33° C | 17% | 1016.5 hPa | 0 mm | - | - | - |
| 1778106550 | 18.33° C | 18% | 1016.6 hPa | 0 mm | - | - | - |
| 1778106394 | 18.33° C | 18% | 1016.6 hPa | 0 mm | - | - | - |
| 1778105795 | 18.33° C | 18% | 1016.6 hPa | 0 mm | - | - | - |
| 1778105491 | 18.33° C | 18% | 1016.7 hPa | 0 mm | - | - | - |
| 1778105101 | 18.33° C | 18% | 1016.7 hPa | 0 mm | - | - | - |
| 1778103898 | 18.33° C | 19% | 1016.9 hPa | 0 mm | - | - | - |
| 1778103597 | 18.33° C | 19% | 1016.9 hPa | 0 mm | - | - | - |
| 1778103294 | 17.78° C | 20% | 1016.9 hPa | 0 mm | - | - | - |
| 1778102992 | 17.78° C | 20% | 1017 hPa | 0 mm | - | - | - |
| 1778102087 | 17.78° C | 20% | 1016.9 hPa | 0 mm | - | - | - |
| 1778099679 | 17.22° C | 20% | 1017 hPa | 0 mm | - | - | - |
| 1778099078 | 16.67° C | 20% | 1017 hPa | 0 mm | - | - | - |
* Rain since midnight (hover to see other rain measurements)
** Current wind speed in m/s (hover to see current wind gust speed)